TimeMDT,TemperatureF,Dew PointF,Humidity,Sea Level PressureIn,VisibilityMPH,Wind Direction,Wind SpeedMPH,Gust SpeedMPH,PrecipitationIn,Events,Conditions,WindDirDegrees,DateUTC
12:53 AM,73.0,43.0,34,29.84,10.0,ENE,6.9,-,N/A,,Clear,70,2013-07-04 06:53:00
1:53 AM,70.0,44.1,39,29.84,10.0,East,5.8,-,N/A,,Clear,80,2013-07-04 07:53:00
2:53 AM,69.1,44.1,40,29.85,10.0,Calm,Calm,-,N/A,,Clear,0,2013-07-04 08:53:00
3:53 AM,66.9,44.1,44,29.82,10.0,East,4.6,-,N/A,,Clear,80,2013-07-04 09:53:00
4:53 AM,63.0,42.1,46,29.82,10.0,ESE,4.6,-,N/A,,Partly Cloudy,120,2013-07-04 10:53:00
5:53 AM,64.9,44.1,47,29.81,10.0,East,4.6,-,N/A,,Partly Cloudy,90,2013-07-04 11:53:00
6:53 AM,63.0,44.1,50,29.83,10.0,ESE,4.6,-,N/A,,Clear,110,2013-07-04 12:53:00
7:53 AM,66.9,46.0,47,29.83,10.0,East,6.9,-,N/A,,Clear,80,2013-07-04 13:53:00
8:53 AM,72.0,46.9,41,29.87,10.0,ESE,5.8,-,N/A,,Clear,110,2013-07-04 14:53:00
9:53 AM,77.0,46.0,33,29.86,10.0,Variable,5.8,-,N/A,,Clear,0,2013-07-04 15:53:00
10:53 AM,80.1,45.0,29,29.84,10.0,East,4.6,-,N/A,,Clear,100,2013-07-04 16:53:00
11:53 AM,84.0,43.0,24,29.82,8.0,East,5.8,-,N/A,,Clear,90,2013-07-04 17:53:00
12:53 PM,87.1,39.9,19,29.81,7.0,Variable,3.5,-,N/A,,Clear,0,2013-07-04 18:53:00
1:53 PM,89.1,39.0,17,29.79,7.0,WSW,4.6,-,N/A,,Clear,240,2013-07-04 19:53:00
2:53 PM,89.1,36.0,15,29.77,10.0,SW,3.5,-,N/A,,Clear,230,2013-07-04 20:53:00
3:53 PM,91.0,36.0,14,29.75,10.0,Variable,5.8,-,N/A,,Clear,0,2013-07-04 21:53:00
4:53 PM,93.0,37.9,15,29.73,10.0,Variable,3.5,-,N/A,,Clear,0,2013-07-04 22:53:00
5:53 PM,91.9,37.9,15,29.70,10.0,Variable,3.5,-,N/A,,Clear,0,2013-07-04 23:53:00
6:53 PM,91.0,37.0,15,29.71,10.0,SW,5.8,-,N/A,,Clear,220,2013-07-05 00:53:00
7:53 PM,84.9,39.9,20,29.72,8.0,WNW,19.6,41.4,N/A,,Mostly Cloudy,300,2013-07-05 01:53:00
8:53 PM,84.9,37.0,18,29.73,10.0,Calm,Calm,-,N/A,,Scattered Clouds,0,2013-07-05 02:53:00
9:34 PM,84.2,39.2,20,29.95,10.0,East,16.1,21.9,0.00,,Partly Cloudy,100,2013-07-05 03:34:00
9:53 PM,81.0,43.0,26,29.74,10.0,ESE,15.0,-,0.00,,Clear,110,2013-07-05 03:53:00
10:53 PM,79.0,43.0,28,29.75,10.0,East,10.4,-,N/A,,Clear,90,2013-07-05 04:53:00
11:53 PM,73.9,43.0,33,29.76,10.0,ENE,3.5,-,N/A,,Clear,60,2013-07-05 05:53:00